Back to catalog

ARIANE 44LP DEB

LostHEO
NORAD 26794·DEBRIS·🇫🇷 France

Launched Mar 2, 1991 from Guiana Space Centre

Loading…

Next Passes (next 24 hours)

TLE

StaleSource: Space-Track

Epoch: Jun 1, 2026, 14:15 UTC

1 26794U 91015L   26152.59411734  .00000097  00000-0  25513-2 0  9998
2 26794   7.9193  25.7471 6615430 218.0130 348.7944  2.89506314127709

Track ARIANE 44LP DEB in real time with AllMySat

Download on the App Store